User: anonymous   Login
Location: Izdebno
(52.6670°N, 16.2170°E)
Time: 21:27:17
(UTC+02:00)
Language:

Vanguard 3 - Orbit

View from above orbital plane
View from above orbital plane
View from above satellite
View from above satellite

Ground track
Ground track

The orbit data is extracted from the following two-line orbital elements,

1 00020U 59007A   24199.46068836  .00003335  00000-0  13323-2 0  9997
2 00020  33.3540 261.6221 1650709 269.1053  72.0893 11.59124264403287
Epoch (UTC): 17 July 2024 11:03:23
Eccentricity: 0.1650709
inclination: 33.3540°
perigee height: 508 km
apogee height: 3230 km
right ascension of ascending node: 261.6221°
argument of perigee: 269.1053°
revolutions per day: 11.59124264
mean anomaly at epoch: 72.0893°
orbit number at epoch: 40328

The dashed part of the orbit path shows where the satellite is in the earth's shadow,  

DLR